Aberdeen, SD

10:52 AM CDT on July 23, 2017 (GMT -0500)
Aberdeen Regional

Weather History for KABR - March, 2013

Change the Weather History Date:

Saturday, March 30, 2013

  Actual Average Record
Temperature  
Mean Temperature 36 °F 36 °F  
Max Temperature 46 °F 48 °F 81 °F (1943)
Min Temperature 26 °F 25 °F -14 °F (1969)
Degree Days  
Heating Degree Days 29 29  
Month to date heating degree days 1357 1060  
Since 1 July heating degree days 7771 7523  
Cooling Degree Days 0 0  
Month to date cooling degree days 0 0  
Year to date cooling degree days 0 0  
Moisture  
Dew Point 32 °F    
Average Humidity 83    
Maximum Humidity 92    
Minimum Humidity 73    
Precipitation  
Precipitation T in 0.05 in 0.52 in (2007)
Month to date precipitation 0.24 1.11  
Year to date precipitation 2.08 2.13  
Snow  
Snow 0.00 in 0.20 in 2.00 in (2009)
Month to date snowfall 1.9 7.0  
Since 1 July snowfall 41.0 34.8  
Snow Depth 1.00 in    
Sea Level Pressure  
Sea Level Pressure 30.00 in    
Wind  
Wind Speed 6 mph (NNW)    
Max Wind Speed 14 mph    
Max Gust Speed 18 mph    
Visibility 6 miles    
Events      
T = Trace of Precipitation, MM = Missing Value Source: NWS Daily Summary

Daily Weather History Graph

Daily Weather History Graph

Search for Another Location

Airport or City:

Trip Planner

Search our weather history database for the weather conditions in past years. The results will help you decide how hot, cold, wet, or windy it might be!

Date:

Astronomy

Mar. 30, 2013 Rise Set
Actual Time 7:17 AM CDT 7:59 PM CDT
Civil Twilight 6:47 AM CDT 8:29 PM CDT
Nautical Twilight 6:12 AM CDT 9:05 PM CDT
Astronomical Twilight 5:35 AM CDT 9:42 PM CDT
Moon No Moon Rise 9:02 AM CDT (3/30)
Length of Visible Light 13h 42m
Length of Day
12h 42m
Waning Gibbous, 86% of the Moon is Illuminated
Mar 30
Waning Gibbous
Apr 2
Last Quarter
Apr 10
New
Apr 18
First Quarter
Apr 25
Full

Hourly Weather History & Observations

Time (CDT) Temp. Windchill Dew Point Humidity Pressure Visibility Wind Dir Wind Speed Gust Speed Precip Events Conditions
12:53 AM 34.0 °F 26.6 °F 30.9 °F 89% 29.96 in 4.0 mi NNW 9.2 mph - N/A   Clear
1:53 AM 33.1 °F 24.9 °F 30.0 °F 89% 29.97 in 4.0 mi North 10.4 mph - N/A   Clear
2:24 AM 32.0 °F 23.6 °F 30.2 °F 93% 29.94 in 4.0 mi North 10.4 mph - N/A   Scattered Clouds
2:33 AM 32.0 °F 23.6 °F 30.2 °F 93% 29.94 in 4.0 mi NNW 10.4 mph - N/A   Mostly Cloudy
2:53 AM 33.1 °F 26.1 °F 30.0 °F 89% 29.98 in 5.0 mi North 8.1 mph - N/A   Overcast
3:53 AM 33.1 °F 28.7 °F 30.0 °F 89% 29.98 in 5.0 mi North 4.6 mph - N/A   Overcast
4:36 AM 30.2 °F 25.4 °F 26.6 °F 86% 29.96 in 4.0 mi WNW 4.6 mph - N/A   Scattered Clouds
4:50 AM 30.2 °F 26.7 °F 26.6 °F 86% 29.96 in 4.0 mi NW 3.5 mph - N/A   Mostly Cloudy
4:53 AM 30.0 °F 25.2 °F 27.0 °F 88% 30.00 in 4.0 mi WNW 4.6 mph - N/A   Mostly Cloudy
5:09 AM 30.2 °F 25.4 °F 28.4 °F 93% 29.97 in 5.0 mi WNW 4.6 mph - N/A   Scattered Clouds
5:53 AM 28.9 °F 22.8 °F 26.1 °F 89% 30.01 in 5.0 mi WNW 5.8 mph - N/A   Clear
6:53 AM 28.0 °F 24.2 °F 25.0 °F 88% 30.02 in 4.0 mi WSW 3.5 mph - N/A   Clear
7:53 AM 28.0 °F 24.2 °F 25.0 °F 88% 30.04 in 4.0 mi WSW 3.5 mph - N/A   Clear
8:53 AM 34.0 °F 28.8 °F 28.9 °F 82% 30.03 in 6.0 mi West 5.8 mph - N/A   Haze
9:53 AM 39.0 °F 36.8 °F 32.0 °F 76% 30.03 in 7.0 mi NW 3.5 mph - N/A   Clear
10:53 AM 41.0 °F 37.1 °F 34.0 °F 76% 30.02 in 7.0 mi NNW 5.8 mph - N/A   Clear
11:34 AM 42.8 °F 40.1 °F 35.6 °F 76% 30.00 in 7.0 mi NNW 4.6 mph - N/A   Mostly Cloudy
11:53 AM 43.0 °F 40.3 °F 35.1 °F 74% 30.03 in 6.0 mi North 4.6 mph - N/A   Haze
12:53 PM 42.1 °F 39.2 °F 35.1 °F 76% 30.04 in 5.0 mi Variable 4.6 mph - N/A   Haze
1:53 PM 43.0 °F 38.2 °F 36.0 °F 76% 30.03 in 5.0 mi NNW 8.1 mph - N/A   Haze
2:53 PM 45.0 °F 40.1 °F 37.0 °F 74% 30.03 in 6.0 mi North 9.2 mph - N/A   Haze
3:37 PM 44.6 °F 40.2 °F 37.4 °F 76% 29.99 in 7.0 mi NNE 8.1 mph - N/A   Overcast
3:53 PM 45.0 °F 41.2 °F 37.0 °F 74% 30.02 in 8.0 mi North 6.9 mph - N/A   Overcast
4:53 PM 43.0 °F 37.7 °F 36.0 °F 76% 30.02 in 8.0 mi ENE 9.2 mph - N/A   Overcast
5:33 PM 42.8 °F 38.6 °F 35.6 °F 76% 29.97 in 8.0 mi NE 6.9 mph - N/A   Partly Cloudy
5:53 PM 43.0 °F 38.2 °F 36.0 °F 76% 30.01 in 9.0 mi NNE 8.1 mph - N/A   Clear
6:53 PM 41.0 °F 39.0 °F 35.1 °F 79% 30.01 in 8.0 mi NNE 3.5 mph - N/A   Clear
7:53 PM 35.1 °F 32.2 °F 32.0 °F 89% 30.01 in 6.0 mi ESE 3.5 mph - N/A   Clear
8:53 PM 34.0 °F 31.0 °F 30.9 °F 89% 30.02 in 4.0 mi NE 3.5 mph - N/A   Clear
9:53 PM 33.1 °F 28.7 °F 30.9 °F 92% 30.03 in 4.0 mi NNE 4.6 mph - N/A   Mostly Cloudy
10:53 PM 33.1 °F 28.7 °F 30.9 °F 92% 30.03 in 4.0 mi West 4.6 mph - N/A   Overcast
11:53 PM 33.1 °F 27.7 °F 30.0 °F 89% 30.02 in 6.0 mi WSW 5.8 mph - 0.00 in   Mostly Cloudy